AFL732 URWW-UWKD

Flight info

Callsign AFL732
Flight time 1h 36m
Altitude 37000
Route RODUN1E RODUN R807 UROBO P135 DAFOS T789 SONUM SONUM1T
Aircraft A320/M-SDE3FGHIRWY/LB1

Departure

Time 2026-05-07 17:20
Airport Volgograd International Airport (URWW)

Arrival

Time 2026-05-07 18:57
Airport Kazan International Airport (UWKD)
Time Latitude Longitude Altitude Speed Heading
2026-05-07 16:38 48.79118 44.35667 471 ft 0 kts 339°
2026-05-07 17:00 48.79117 44.35667 471 ft 1 kts 340°
2026-05-07 17:00 48.79103 44.35675 471 ft 2 kts 339°
2026-05-07 17:01 48.79089 44.35683 471 ft 2 kts 339°
2026-05-07 17:01 48.79080 44.35688 471 ft 1 kts 330°
2026-05-07 17:01 48.79071 44.35706 471 ft 2 kts 282°
2026-05-07 17:01 48.79071 44.35722 471 ft 0 kts 253°
2026-05-07 17:02 48.79073 44.35732 471 ft 1 kts 249°
2026-05-07 17:02 48.79074 44.35733 471 ft 0 kts 249°
2026-05-07 17:04 48.79071 44.35724 471 ft 1 kts 249°
2026-05-07 17:05 48.79064 44.35695 471 ft 3 kts 249°
2026-05-07 17:05 48.79053 44.35650 471 ft 5 kts 249°
2026-05-07 17:05 48.79040 44.35597 471 ft 0 kts 249°
2026-05-07 17:06 48.79031 44.35562 471 ft 11 kts 249°
2026-05-07 17:07 48.78997 44.35420 469 ft 15 kts 249°
2026-05-07 17:07 48.78957 44.35258 468 ft 16 kts 249°
2026-05-07 17:07 48.78931 44.35153 467 ft 6 kts 249°
2026-05-07 17:07 48.78889 44.35109 466 ft 9 kts 173°
2026-05-07 17:08 48.78827 44.35136 467 ft 9 kts 161°
2026-05-07 17:08 48.78815 44.35142 467 ft 0 kts 161°
2026-05-07 17:11 48.78809 44.35145 467 ft 2 kts 161°
2026-05-07 17:11 48.78785 44.35158 466 ft 5 kts 161°
2026-05-07 17:12 48.78767 44.35166 466 ft 0 kts 161°
2026-05-07 17:13 48.78762 44.35169 466 ft 2 kts 162°
2026-05-07 17:14 48.78736 44.35182 466 ft 6 kts 161°
2026-05-07 17:14 48.78691 44.35204 465 ft 0 kts 161°
2026-05-07 17:16 48.78690 44.35205 466 ft 1 kts 161°
2026-05-07 17:16 48.78592 44.35247 466 ft 18 kts 183°
2026-05-07 17:17 48.78561 44.35212 465 ft 0 kts 251°
2026-05-07 17:19 48.78508 44.35034 464 ft 55 kts 243°
2026-05-07 17:19 48.78222 44.34169 446 ft 126 kts 244°
2026-05-07 17:20 48.77763 44.32729 545 ft 169 kts 244°
2026-05-07 17:20 48.77252 44.31158 1256 ft 168 kts 245°
2026-05-07 17:20 48.76734 44.29578 1991 ft 169 kts 246°
2026-05-07 17:20 48.76210 44.27950 2537 ft 181 kts 246°
2026-05-07 17:21 48.75642 44.26167 2990 ft 198 kts 247°
2026-05-07 17:21 48.75021 44.24213 3482 ft 215 kts 247°
2026-05-07 17:21 48.74559 44.22001 3995 ft 228 kts 272°
2026-05-07 17:21 48.74920 44.19701 4576 ft 233 kts 305°
2026-05-07 17:22 48.76082 44.17976 5183 ft 239 kts 336°
2026-05-07 17:22 48.77698 44.17456 5779 ft 248 kts
2026-05-07 17:22 48.79314 44.18395 6464 ft 257 kts 35°
2026-05-07 17:22 48.80743 44.20025 7325 ft 262 kts 35°
2026-05-07 17:23 48.82236 44.21628 8101 ft 270 kts 34°
2026-05-07 17:23 48.83803 44.23285 8617 ft 288 kts 34°
2026-05-07 17:23 48.85501 44.25079 9094 ft 306 kts 34°
2026-05-07 17:23 48.87292 44.26980 9535 ft 324 kts 34°
2026-05-07 17:24 48.89193 44.29004 10014 ft 340 kts 34°
2026-05-07 17:24 48.91161 44.31103 10506 ft 354 kts 34°
2026-05-07 17:24 48.93180 44.33261 11007 ft 365 kts 34°
2026-05-07 17:24 48.95305 44.35537 11514 ft 376 kts 34°
2026-05-07 17:25 48.97435 44.37822 12009 ft 385 kts 35°
2026-05-07 17:25 48.99644 44.40195 12526 ft 393 kts 34°
2026-05-07 17:25 49.01887 44.42607 13253 ft 395 kts 34°
2026-05-07 17:25 49.04100 44.44992 14090 ft 393 kts 34°
2026-05-07 17:26 49.06325 44.47392 14840 ft 394 kts 34°
2026-05-07 17:26 49.08556 44.49800 15589 ft 394 kts 34°
2026-05-07 17:26 49.10784 44.52207 16296 ft 395 kts 34°
2026-05-07 17:26 49.13029 44.54623 16737 ft 389 kts 34°
2026-05-07 17:27 49.15203 44.56965 16925 ft 390 kts 34°
2026-05-07 17:27 49.17469 44.59412 16927 ft 409 kts 34°
2026-05-07 17:27 49.19823 44.61959 16925 ft 420 kts 34°
2026-05-07 17:27 49.22218 44.64556 17113 ft 423 kts 34°
2026-05-07 17:28 49.24601 44.67155 17850 ft 421 kts 35°
2026-05-07 17:28 49.26975 44.69755 18605 ft 419 kts 35°
2026-05-07 17:28 49.29342 44.72349 19365 ft 416 kts 35°
2026-05-07 17:28 49.31679 44.74912 20118 ft 414 kts 36°
2026-05-07 17:29 49.33976 44.77431 20873 ft 411 kts 35°
2026-05-07 17:29 49.36275 44.79950 21631 ft 408 kts 35°
2026-05-07 17:29 49.38585 44.82485 22401 ft 405 kts 35°
2026-05-07 17:29 49.40832 44.84954 23160 ft 402 kts 35°
2026-05-07 17:30 49.43105 44.87454 23935 ft 398 kts 35°
2026-05-07 17:30 49.45320 44.89893 24710 ft 394 kts 35°
2026-05-07 17:30 49.47513 44.92314 25490 ft 390 kts 34°
2026-05-07 17:30 49.49690 44.94717 26281 ft 385 kts 34°
2026-05-07 17:31 49.51837 44.97090 27074 ft 379 kts 34°
2026-05-07 17:31 49.53945 44.99422 27869 ft 373 kts 34°
2026-05-07 17:31 49.56047 45.01750 28543 ft 371 kts 34°
2026-05-07 17:31 49.58142 45.04073 28888 ft 377 kts 34°
2026-05-07 17:32 49.60297 45.06458 28936 ft 389 kts 34°
2026-05-07 17:32 49.62539 45.08943 28959 ft 401 kts 33°
2026-05-07 17:32 49.64862 45.11289 29305 ft 404 kts 29°
2026-05-07 17:32 49.67351 45.13331 29851 ft 402 kts 24°
2026-05-07 17:33 49.69902 45.14994 30389 ft 400 kts 19°
2026-05-07 17:33 49.72522 45.16307 30925 ft 397 kts 15°
2026-05-07 17:33 49.75148 45.17481 31459 ft 395 kts 15°
2026-05-07 17:33 49.77781 45.18630 31995 ft 393 kts 14°
2026-05-07 17:34 49.80399 45.19773 32528 ft 390 kts 14°
2026-05-07 17:34 49.82996 45.20907 32879 ft 391 kts 14°
2026-05-07 17:34 49.88366 45.23260 32935 ft 409 kts 14°
2026-05-07 17:35 49.93930 45.25713 32946 ft 425 kts 14°
2026-05-07 17:35 49.99678 45.28251 32944 ft 438 kts 14°
2026-05-07 17:36 50.05458 45.31370 32937 ft 439 kts 27°
2026-05-07 17:36 50.07886 45.34108 32939 ft 424 kts 40°
2026-05-07 17:36 50.09748 45.37546 32939 ft 415 kts 54°
2026-05-07 17:37 50.10995 45.41569 32955 ft 418 kts 66°
2026-05-07 17:37 50.11926 45.45861 32948 ft 420 kts 69°
2026-05-07 17:37 50.13623 45.54531 32942 ft 419 kts 69°
2026-05-07 17:38 50.15199 45.62723 32937 ft 419 kts 69°
2026-05-07 17:38 50.16848 45.71388 32938 ft 418 kts 70°
2026-05-07 17:39 50.18504 45.80066 32936 ft 418 kts 70°
2026-05-07 17:39 50.20809 45.88210 32934 ft 410 kts 54°
2026-05-07 17:40 50.24469 45.94855 32935 ft 405 kts 39°
2026-05-07 17:40 50.29140 45.99662 32936 ft 401 kts 24°
2026-05-07 17:41 50.34394 46.02256 32942 ft 400 kts
2026-05-07 17:41 50.39890 46.02511 32933 ft 401 kts 354°
2026-05-07 17:42 50.45037 46.00521 32923 ft 403 kts 340°
2026-05-07 17:42 50.49958 45.96350 32933 ft 406 kts 330°
2026-05-07 17:43 50.54724 45.91594 32934 ft 406 kts 329°
2026-05-07 17:43 50.59465 45.86846 32939 ft 406 kts 329°
2026-05-07 17:44 50.64228 45.82074 32936 ft 407 kts 329°
2026-05-07 17:44 50.68966 45.77325 32933 ft 407 kts 329°
2026-05-07 17:45 50.73749 45.72520 32940 ft 407 kts 329°
2026-05-07 17:45 50.78499 45.67732 32948 ft 408 kts 329°
2026-05-07 17:46 50.83387 45.63250 32954 ft 406 kts 338°
2026-05-07 17:46 50.88757 45.60930 32956 ft 405 kts 354°
2026-05-07 17:47 50.94366 45.61057 32955 ft 405 kts
2026-05-07 17:47 50.99783 45.63488 32961 ft 407 kts 17°
2026-05-07 17:48 51.05147 45.66309 32963 ft 407 kts 20°
2026-05-07 17:48 51.10326 45.69877 32960 ft 408 kts 24°
2026-05-07 17:49 51.15473 45.73677 32962 ft 407 kts 24°
2026-05-07 17:49 51.20569 45.77486 32955 ft 408 kts 24°
2026-05-07 17:50 51.25706 45.81315 32955 ft 408 kts 24°
2026-05-07 17:50 51.30813 45.85162 32958 ft 408 kts 25°
2026-05-07 17:51 51.35955 45.89059 32955 ft 408 kts 25°
2026-05-07 17:51 51.41058 45.92946 32953 ft 409 kts 25°
2026-05-07 17:52 51.46169 45.96848 32945 ft 410 kts 25°
2026-05-07 17:52 51.51295 46.00777 32942 ft 410 kts 25°
2026-05-07 17:53 51.56432 46.04721 32937 ft 410 kts 25°
2026-05-07 17:53 51.61506 46.08848 32937 ft 416 kts 26°
2026-05-07 17:54 51.66759 46.13195 32934 ft 434 kts 26°
2026-05-07 17:54 51.72223 46.17721 32936 ft 448 kts 26°
2026-05-07 17:55 51.77793 46.22341 32938 ft 453 kts 26°
2026-05-07 17:55 51.83380 46.26975 32936 ft 453 kts 26°
2026-05-07 17:56 51.88967 46.31618 32940 ft 453 kts 26°
2026-05-07 17:56 51.94564 46.36288 32936 ft 454 kts 26°
2026-05-07 17:57 51.99238 46.40204 32932 ft 454 kts 26°
2026-05-07 17:57 52.05767 46.45679 32933 ft 454 kts 26°
2026-05-07 17:58 52.11351 46.50379 32931 ft 455 kts 26°
2026-05-07 17:58 52.16949 46.55088 32928 ft 455 kts 26°
2026-05-07 17:59 52.22572 46.59829 32925 ft 455 kts 26°
2026-05-07 17:59 52.28159 46.64564 32935 ft 456 kts 26°
2026-05-07 18:00 52.33778 46.69372 32938 ft 456 kts 26°
2026-05-07 18:00 52.39411 46.74210 32935 ft 462 kts 26°
2026-05-07 18:01 52.45074 46.79073 32941 ft 464 kts 26°
2026-05-07 18:01 52.50782 46.83978 32946 ft 464 kts 26°
2026-05-07 18:02 52.59347 46.91349 32947 ft 464 kts 26°
2026-05-07 18:03 52.65038 46.96272 32951 ft 465 kts 26°
2026-05-07 18:03 52.70758 47.01240 32947 ft 467 kts 26°
2026-05-07 18:04 52.76501 47.06247 32950 ft 468 kts 26°
2026-05-07 18:04 52.82252 47.11274 32948 ft 468 kts 26°
2026-05-07 18:05 52.87979 47.16280 32944 ft 467 kts 26°
2026-05-07 18:05 52.90801 47.18756 32948 ft 456 kts 26°
2026-05-07 18:05 52.93576 47.21197 32951 ft 453 kts 26°
2026-05-07 18:06 52.99131 47.26093 32951 ft 453 kts 26°
2026-05-07 18:06 53.04699 47.31018 32951 ft 454 kts 26°
2026-05-07 18:07 53.10224 47.35925 32951 ft 454 kts 26°
2026-05-07 18:07 53.15821 47.40888 32947 ft 454 kts 26°
2026-05-07 18:08 53.21341 47.45791 32940 ft 453 kts 26°
2026-05-07 18:08 53.26874 47.50729 32933 ft 452 kts 26°
2026-05-07 18:09 53.32385 47.55674 32929 ft 453 kts 27°
2026-05-07 18:09 53.37918 47.60663 32930 ft 453 kts 27°
2026-05-07 18:10 53.43465 47.65677 32934 ft 460 kts 27°
2026-05-07 18:10 53.49204 47.70483 32937 ft 463 kts 22°
2026-05-07 18:11 53.55164 47.74531 32938 ft 462 kts 20°
2026-05-07 18:11 53.61125 47.78455 32935 ft 462 kts 20°
2026-05-07 18:12 53.67090 47.82397 32933 ft 462 kts 20°
2026-05-07 18:12 53.73216 47.85670 32933 ft 461 kts 14°
2026-05-07 18:13 53.79385 47.88266 32934 ft 461 kts 14°
2026-05-07 18:13 53.85484 47.91678 32932 ft 461 kts 21°
2026-05-07 18:14 53.91355 47.95952 32937 ft 461 kts 23°
2026-05-07 18:14 53.97095 48.00307 32933 ft 439 kts 23°
2026-05-07 18:14 53.99810 48.02369 32936 ft 423 kts 23°
2026-05-07 18:15 54.02492 48.04405 32941 ft 421 kts 23°
2026-05-07 18:15 54.07817 48.08447 32945 ft 421 kts 23°
2026-05-07 18:16 54.13124 48.12476 32944 ft 421 kts 23°
2026-05-07 18:16 54.18475 48.16544 32949 ft 421 kts 23°
2026-05-07 18:17 54.23821 48.20627 32954 ft 428 kts 23°
2026-05-07 18:17 54.29164 48.25214 32929 ft 429 kts 27°
2026-05-07 18:17 54.31734 48.27657 32555 ft 426 kts 28°
2026-05-07 18:18 54.34335 48.30154 31745 ft 430 kts 28°
2026-05-07 18:18 54.36917 48.32640 30827 ft 435 kts 28°
2026-05-07 18:18 54.39549 48.35175 29931 ft 438 kts 28°
2026-05-07 18:18 54.42234 48.37764 29062 ft 440 kts 28°
2026-05-07 18:19 54.44884 48.40321 28317 ft 439 kts 28°
2026-05-07 18:19 54.47510 48.42858 27772 ft 433 kts 28°
2026-05-07 18:19 54.50083 48.45350 27215 ft 428 kts 28°
2026-05-07 18:19 54.52677 48.47862 26601 ft 424 kts 28°
2026-05-07 18:20 54.55209 48.50319 26009 ft 420 kts 28°
2026-05-07 18:20 54.57730 48.52769 25378 ft 417 kts 28°
2026-05-07 18:20 54.60239 48.55211 24834 ft 412 kts 28°
2026-05-07 18:20 54.62710 48.57620 24413 ft 405 kts 28°
2026-05-07 18:21 54.65130 48.59984 24046 ft 397 kts 28°
2026-05-07 18:21 54.67503 48.62305 23666 ft 389 kts 28°
2026-05-07 18:21 54.69830 48.64581 23244 ft 384 kts 28°
2026-05-07 18:21 54.72106 48.66819 22963 ft 374 kts 29°
2026-05-07 18:22 54.74330 48.69018 22937 ft 359 kts 29°
2026-05-07 18:22 54.75735 48.70407 22931 ft 348 kts 28°
2026-05-07 18:22 54.78462 48.73095 22927 ft 328 kts 28°
2026-05-07 18:22 54.80372 48.74977 22932 ft 313 kts 28°
2026-05-07 18:23 54.82248 48.76825 22937 ft 308 kts 29°
2026-05-07 18:23 54.84111 48.78662 22935 ft 307 kts 28°
2026-05-07 18:23 54.85946 48.80474 22937 ft 307 kts 28°
2026-05-07 18:23 54.87810 48.82318 22943 ft 307 kts 29°
2026-05-07 18:24 54.89652 48.84142 22943 ft 307 kts 29°
2026-05-07 18:24 54.91509 48.85984 22941 ft 306 kts 29°
2026-05-07 18:24 54.93354 48.87818 22945 ft 307 kts 29°
2026-05-07 18:24 54.95197 48.89652 22946 ft 308 kts 28°
2026-05-07 18:25 54.97047 48.91494 22949 ft 309 kts 29°
2026-05-07 18:25 54.98918 48.93357 22945 ft 310 kts 29°
2026-05-07 18:25 55.00772 48.95206 22944 ft 310 kts 29°
2026-05-07 18:25 55.02653 48.97087 22948 ft 309 kts 29°
2026-05-07 18:26 55.04496 48.98928 22946 ft 309 kts 29°
2026-05-07 18:26 55.06366 49.00803 22945 ft 309 kts 28°
2026-05-07 18:26 55.08224 49.02659 22944 ft 309 kts 28°
2026-05-07 18:26 55.10074 49.04515 22950 ft 308 kts 28°
2026-05-07 18:27 55.11935 49.06377 22947 ft 307 kts 28°
2026-05-07 18:27 55.13776 49.08217 22949 ft 306 kts 28°
2026-05-07 18:27 55.15631 49.09998 22947 ft 306 kts 26°
2026-05-07 18:27 55.17502 49.11781 22951 ft 307 kts 28°
2026-05-07 18:28 55.19359 49.13623 22947 ft 307 kts 28°
2026-05-07 18:28 55.21215 49.15492 22946 ft 307 kts 28°
2026-05-07 18:28 55.23056 49.17357 22951 ft 308 kts 28°
2026-05-07 18:28 55.24918 49.19250 22961 ft 308 kts 28°
2026-05-07 18:29 55.26763 49.21124 22948 ft 309 kts 28°
2026-05-07 18:29 55.28595 49.22996 22944 ft 309 kts 28°
2026-05-07 18:29 55.30443 49.24903 22950 ft 309 kts 30°
2026-05-07 18:29 55.32077 49.27398 22944 ft 311 kts 52°
2026-05-07 18:30 55.32986 49.30764 22949 ft 313 kts 76°
2026-05-07 18:30 55.33048 49.34577 22957 ft 316 kts 101°
2026-05-07 18:30 55.32222 49.38144 22954 ft 318 kts 125°
2026-05-07 18:30 55.30656 49.40819 22956 ft 320 kts 149°
2026-05-07 18:31 55.28581 49.42185 22958 ft 319 kts 174°
2026-05-07 18:31 55.26413 49.41970 22957 ft 313 kts 198°
2026-05-07 18:31 55.24416 49.40608 22961 ft 304 kts 206°
2026-05-07 18:31 55.22525 49.38994 22956 ft 303 kts 208°
2026-05-07 18:32 55.20636 49.37319 22957 ft 302 kts 208°
2026-05-07 18:32 55.18757 49.35634 22954 ft 301 kts 208°
2026-05-07 18:32 55.16906 49.33971 22952 ft 301 kts 208°
2026-05-07 18:32 55.15032 49.32293 22958 ft 301 kts 208°
2026-05-07 18:33 55.13156 49.30605 22958 ft 301 kts 208°
2026-05-07 18:33 55.11295 49.28925 22951 ft 301 kts 208°
2026-05-07 18:33 55.09455 49.27260 22951 ft 301 kts 208°
2026-05-07 18:33 55.08263 49.26179 22952 ft 302 kts 208°
2026-05-07 18:34 55.06422 49.24506 22948 ft 302 kts 208°
2026-05-07 18:34 55.04543 49.22797 22947 ft 303 kts 208°
2026-05-07 18:34 55.02692 49.21111 22950 ft 303 kts 208°
2026-05-07 18:34 55.00834 49.19357 22945 ft 301 kts 215°
2026-05-07 18:35 54.99380 49.16843 22934 ft 296 kts 241°
2026-05-07 18:35 54.98712 49.13531 22947 ft 291 kts 267°
2026-05-07 18:35 54.98952 49.10101 22935 ft 289 kts 293°
2026-05-07 18:35 55.00052 49.07209 22932 ft 287 kts 319°
2026-05-07 18:36 55.01704 49.05236 22940 ft 290 kts 330°
2026-05-07 18:36 55.03475 49.03598 22930 ft 292 kts 333°
2026-05-07 18:36 55.05299 49.02008 22927 ft 292 kts 333°
2026-05-07 18:36 55.07091 49.00464 22925 ft 291 kts 333°
2026-05-07 18:37 55.08917 48.98899 22928 ft 291 kts 333°
2026-05-07 18:37 55.10718 48.97353 22927 ft 290 kts 333°
2026-05-07 18:37 55.12524 48.95800 22927 ft 290 kts 333°
2026-05-07 18:37 55.14334 48.94239 22928 ft 289 kts 333°
2026-05-07 18:38 55.16131 48.92682 22928 ft 289 kts 333°
2026-05-07 18:38 55.17915 48.91132 22926 ft 289 kts 333°
2026-05-07 18:38 55.19724 48.89565 22927 ft 289 kts 333°
2026-05-07 18:38 55.21524 48.88015 22927 ft 289 kts 333°
2026-05-07 18:39 55.23338 48.86469 22926 ft 290 kts 333°
2026-05-07 18:39 55.25144 48.84944 22928 ft 291 kts 333°
2026-05-07 18:39 55.26967 48.83416 22931 ft 291 kts 333°
2026-05-07 18:39 55.28788 48.81902 22927 ft 290 kts 333°
2026-05-07 18:40 55.30591 48.80419 22866 ft 289 kts 334°
2026-05-07 18:40 55.32407 48.78933 22737 ft 289 kts 334°
2026-05-07 18:40 55.34215 48.77450 22607 ft 288 kts 334°
2026-05-07 18:40 55.36019 48.75973 22476 ft 287 kts 334°
2026-05-07 18:41 55.37846 48.74485 22345 ft 286 kts 334°
2026-05-07 18:41 55.39648 48.73026 22216 ft 285 kts 334°
2026-05-07 18:41 55.41425 48.71586 22090 ft 284 kts 334°
2026-05-07 18:41 55.43225 48.70129 21878 ft 281 kts 334°
2026-05-07 18:42 55.44982 48.68711 21499 ft 281 kts 334°
2026-05-07 18:42 55.46748 48.67294 21125 ft 280 kts 334°
2026-05-07 18:42 55.48514 48.65879 20774 ft 278 kts 334°
2026-05-07 18:42 55.50261 48.64480 20442 ft 276 kts 334°
2026-05-07 18:43 55.52012 48.63074 20116 ft 273 kts 334°
2026-05-07 18:43 55.53717 48.61715 19775 ft 272 kts 334°
2026-05-07 18:43 55.55448 48.60346 19428 ft 270 kts 334°
2026-05-07 18:43 55.57140 48.59012 19096 ft 269 kts 334°
2026-05-07 18:44 55.58837 48.57679 18760 ft 267 kts 334°
2026-05-07 18:44 55.60549 48.56338 18403 ft 266 kts 334°
2026-05-07 18:44 55.62234 48.55020 18055 ft 265 kts 334°
2026-05-07 18:44 55.63911 48.53770 17723 ft 265 kts 341°
2026-05-07 18:45 55.65754 48.53650 17355 ft 270 kts 16°
2026-05-07 18:45 55.67350 48.55364 17102 ft 271 kts 45°
2026-05-07 18:45 55.68341 48.58117 16783 ft 273 kts 70°
2026-05-07 18:45 55.68579 48.61467 16245 ft 279 kts 99°
2026-05-07 18:46 55.68054 48.64795 15565 ft 291 kts 110°
2026-05-07 18:46 55.67345 48.68184 14828 ft 298 kts 110°
2026-05-07 18:46 55.66636 48.71621 14089 ft 299 kts 110°
2026-05-07 18:46 55.65942 48.75097 13339 ft 299 kts 109°
2026-05-07 18:47 55.65277 48.78501 12608 ft 299 kts 109°
2026-05-07 18:47 55.64608 48.81966 11862 ft 298 kts 108°
2026-05-07 18:47 55.63945 48.85411 11124 ft 297 kts 108°
2026-05-07 18:47 55.63464 48.88895 10356 ft 293 kts 89°
2026-05-07 18:48 55.63935 48.92274 9572 ft 285 kts 56°
2026-05-07 18:48 55.65306 48.94641 8870 ft 278 kts 29°
2026-05-07 18:48 55.67000 48.96206 8137 ft 275 kts 26°
2026-05-07 18:48 55.68663 48.97792 7400 ft 273 kts 30°
2026-05-07 18:49 55.70175 48.99764 6647 ft 271 kts 39°
2026-05-07 18:49 55.71444 49.02205 5849 ft 271 kts 62°
2026-05-07 18:49 55.71924 49.05371 5117 ft 270 kts 81°
2026-05-07 18:49 55.72366 49.08557 4366 ft 267 kts 62°
2026-05-07 18:50 55.73518 49.11015 3613 ft 265 kts 35°
2026-05-07 18:50 55.75177 49.12177 2998 ft 259 kts
2026-05-07 18:50 55.76915 49.11682 2713 ft 250 kts 335°
2026-05-07 18:50 55.78182 49.09750 2677 ft 237 kts 302°
2026-05-07 18:51 55.78644 49.07093 2664 ft 223 kts 268°
2026-05-07 18:51 55.78201 49.04494 2665 ft 221 kts 232°
2026-05-07 18:51 55.77027 49.02824 2672 ft 216 kts 197°
2026-05-07 18:51 55.75579 49.02623 2674 ft 212 kts 163°
2026-05-07 18:52 55.74300 49.03819 2686 ft 202 kts 141°
2026-05-07 18:52 55.73255 49.05201 2718 ft 177 kts 141°
2026-05-07 18:52 55.72341 49.06390 2624 ft 151 kts 141°
2026-05-07 18:52 55.71540 49.07422 2570 ft 138 kts 140°
2026-05-07 18:53 55.70777 49.08411 2573 ft 137 kts 140°
2026-05-07 18:53 55.70003 49.09411 2574 ft 136 kts 140°
2026-05-07 18:53 55.69238 49.10398 2576 ft 136 kts 140°
2026-05-07 18:53 55.68470 49.11386 2578 ft 136 kts 140°
2026-05-07 18:54 55.67724 49.12340 2418 ft 131 kts 140°
2026-05-07 18:54 55.66980 49.13292 2055 ft 132 kts 140°
2026-05-07 18:54 55.66254 49.14303 1817 ft 133 kts 133°
2026-05-07 18:54 55.65613 49.15479 1644 ft 134 kts 127°
2026-05-07 18:55 55.65022 49.16740 1470 ft 134 kts 126°
2026-05-07 18:55 55.64454 49.18050 1291 ft 133 kts 123°
2026-05-07 18:55 55.63925 49.19381 1118 ft 133 kts 122°
2026-05-07 18:55 55.63397 49.20746 941 ft 133 kts 122°
2026-05-07 18:56 55.62876 49.22091 764 ft 133 kts 123°
2026-05-07 18:56 55.62353 49.23435 592 ft 132 kts 123°
2026-05-07 18:56 55.61839 49.24759 413 ft 129 kts 123°
2026-05-07 18:56 55.61369 49.25973 352 ft 92 kts 124°
2026-05-07 18:57 55.61177 49.26467 359 ft 8 kts 124°
2026-05-07 18:57 55.61101 49.26673 363 ft 27 kts 125°
2026-05-07 18:57 55.61000 49.26929 368 ft 23 kts 124°
2026-05-07 18:57 55.60872 49.27267 375 ft 55 kts 123°
2026-05-07 18:58 55.60579 49.28021 388 ft 69 kts 126°
2026-05-07 18:58 55.60394 49.28518 395 ft 28 kts 89°
2026-05-07 18:58 55.60488 49.28694 399 ft 6 kts 34°
2026-05-07 18:58 55.60490 49.28696 399 ft 0 kts 35°
2026-05-07 19:00 55.60492 49.28699 399 ft 1 kts 35°
2026-05-07 19:01 55.60502 49.28712 399 ft 2 kts 36°
2026-05-07 19:01 55.60527 49.28743 401 ft 5 kts 36°
2026-05-07 19:01 55.60567 49.28796 403 ft 9 kts 42°
2026-05-07 19:01 55.60580 49.28926 403 ft 12 kts 94°
2026-05-07 19:02 55.60577 49.29070 405 ft 10 kts 90°
2026-05-07 19:02 55.60611 49.29181 405 ft 11 kts 38°
2026-05-07 19:02 55.60674 49.29260 407 ft 10 kts 35°
2026-05-07 19:02 55.60737 49.29337 407 ft 12 kts 33°
2026-05-07 19:03 55.60805 49.29436 405 ft 13 kts 71°
2026-05-07 19:03 55.60776 49.29579 408 ft 1 kts 118°
2026-05-07 19:03 55.60776 49.29580 408 ft 2 kts 118°
2026-05-07 19:03 55.60749 49.29660 410 ft 7 kts 111°
2026-05-07 19:04 55.60770 49.29737 409 ft 8 kts 38°
2026-05-07 19:04 55.60784 49.29756 409 ft 0 kts 36°